Regional Weather Roundup
Issued by NWS

Home | Current Version | Previous Version | Text Only | Print | Product List | Glossary Off
Versions: 1 2 3 4 5 6 7 8 9 10 11 12 13 14 15 16 17 18 19 20 21 22 23 24 25 26 27 28 29 30 31 32 33 34 35 36 37 38 39 40 41 42 43 44 45 46 47 48 49 50

000
ASUS44 KMEG 251910
RWRTN
TENNESSEE HOURLY STATE WEATHER ROUNDUP
NATIONAL WEATHER SERVICE MEMPHIS TN
200 PM CDT WED APR 25 2018

TNZ002-004-019-021-049-052-054-088>092-252000-
WEST TENNESSEE

CITY           SKY/WX    TMP DP  RH WIND       PRES   REMARKS
MEMPHIS INTL   CLOUDY    73  57  57 NW9       30.02S
NWS MEMPHIS      N/A     72 N/A N/A MISG        N/A
JACKSON        FAIR      72  49  44 N8        30.00S
DYERSBURG      FAIR      69  56  62 W5        30.01F
SOMERVILLE     SUNNY     72  50  46 NW8       29.99F
COVINGTON      MOSUNNY   68  50  52 N10G17    30.02S
UNION CITY     SUNNY     72  52  49 CALM      29.99S
BOLIVAR        SUNNY     73  50  43 W7G13     29.99F
PARIS          SUNNY     70  50  49 N7        29.99F
HUNTINGDON     SUNNY     72  48  43 VRB7      29.98F
LEXINGTON      MOSUNNY   72  46  40 N5G14     29.98F
SAVANNAH       PTSUNNY   73  54  49 N9        29.98F
$$

TNZ008-025-027-028-033-062-065-066-252000-
NORTH MIDDLE TENNESSEE

CITY           SKY/WX    TMP DP  RH WIND       PRES   REMARKS
NASHVILLE      PTSUNNY   71  50  47 N15       29.98F
PORTLAND       PTSUNNY   64  50  59 NW8G15    29.98S
CLARKSVILLE    FAIR      68  49  50 N8        29.99S
SMYRNA         FAIR      68  52  56 NW10      29.99F
COOKEVILLE     PTSUNNY   63  52  67 NW8       29.97S
LIVINGSTON     CLOUDY    59  50  72 N9        29.97R
GALLATIN       PTSUNNY   68  50  52 NW14      30.00F
CROSSVILLE     CLOUDY    56  49  77 NW10      29.98R
$$

TNZ061-075-076-078-094-096-097-252000-
SOUTH MIDDLE TENNESSEE

CITY           SKY/WX    TMP DP  RH WIND       PRES   REMARKS
LEWISBURG      PTCLDY    70  52  52 N10       29.97F
FAYETTEVILLE   MOSUNNY   68  52  56 N8        29.97F
TULLAHOMA      MOSUNNY   66  52  59 N12       29.97F
WINCHESTER     CLOUDY    63  50  63 N12G17    29.98F
MCMINNVILLE    PTSUNNY   63  52  67 N8        29.97F
COLUMBIA       MOSUNNY   70  50  49 N3        29.96F
SHELBYVILLE    MOSUNNY   66  52  59 N10       29.98F
$$

TNZ017-018-042-046-047-252000-
NORTHEAST TENNESSEE

CITY           SKY/WX    TMP DP  RH WIND       PRES   REMARKS
TRI CITIES     CLOUDY    63  51  65 W10       29.88F
ELIZABETHTON   CLOUDY    63  50  63 W9G17     29.88S
$$

TNZ012-013-036-069-073-074-252000-
CENTRAL EAST TENNESSEE

CITY           SKY/WX    TMP DP  RH WIND       PRES   REMARKS
KNOXVILLE      CLOUDY    63  51  65 N7        29.90F
OAK RIDGE      CLOUDY    62  53  72 VRB5      29.93F
DOWNTOWN KNOXV CLOUDY    64  52  63 CALM      29.91F
GATLINBURG     CLOUDY    63  52  67 VRB5      29.91F
MORRISTOWN     PTSUNNY   61  52  72 NW8G16    29.91F
JACKSBORO      CLOUDY    61  52  72 NE3       29.95F
$$

TNZ083-085-099-252000-
SOUTHEAST TENNESSEE

CITY           SKY/WX    TMP DP  RH WIND       PRES   REMARKS
CHATTANOOGA    CLOUDY    64  50  60 NW12      29.96S
DAYTON         CLOUDY    63  55  77 NW10G17   29.96R
$$

SKY/WX REPORTED AS FAIR MEANS FEW OR NO CLOUDS BELOW
12 THOUSAND FEET.




USA.gov is the U.S. government's official web portal to all federal, state and local government web resources and services.